Baku, Azerbaijan

10:05 PM +04 on June 23, 2018 (GMT +0400)
Bina

Weather History for UBBB - March, 2018

Change the Weather History Date:

Tuesday, March 20, 2018

  Actual Average Record
Temperature  
Mean Temperature 52 °F -  
Max Temperature 61 °F - - ()
Min Temperature 42 °F - - ()
Degree Days  
Heating Degree Days 14    
Growing Degree Days 2 (Base 50)    
Moisture  
Dew Point 45 °F    
Average Humidity 86    
Maximum Humidity 100    
Minimum Humidity 59    
Precipitation  
Precipitation 0.00 in - - ()
Sea Level Pressure  
Sea Level Pressure 29.87 in    
Wind  
Wind Speed 9 mph ()    
Max Wind Speed 17 mph    
Max Gust Speed -    
Visibility 3.5 miles    
Events Fog    
T = Trace of Precipitation, MM = Missing Value Source: Averaged Metar Reports

Daily Weather History Graph

Daily Weather History Graph

Search for Another Location

Airport or City:

Astronomy

Mar. 20, 2018 Rise Set
Actual Time 6:43 AM +04 6:51 PM +04
Civil Twilight 6:16 AM +04 7:18 PM +04
Nautical Twilight 5:44 AM +04 7:50 PM +04
Astronomical Twilight 5:12 AM +04 8:22 PM +04
Moon 8:30 AM +04 (3/20) 9:55 PM +04 (3/20)
Length of Visible Light 13h 02m
Length of Day
12h 07m
Waxing Crescent, 9% of the Moon is Illuminated
Mar 20
Waxing Crescent
Mar 24
First Quarter
Mar 31
Full
Apr 8
Last Quarter
Apr 16
New

Hourly Weather History & Observations

Time (+04) Temp. Windchill Dew Point Humidity Pressure Visibility Wind Dir Wind Speed Gust Speed Precip Events Conditions
12:00 AM 53.6 °F - 46.4 °F 77% 29.86 in - WNW 12.7 mph - N/A   Clear
12:30 AM 51.8 °F - 46.4 °F 82% 29.86 in - NW 13.8 mph - N/A   Clear
1:00 AM 50 °F - 45 °F 75% 29.86 in 6 mi West 6.7 mph - -   Mostly Cloudy
1:00 AM 50.0 °F - 44.6 °F 82% 29.86 in - WNW 10.4 mph - N/A   Clear
1:30 AM 50.0 °F - 46.4 °F 87% 29.86 in - NW 11.5 mph - N/A   Clear
2:00 AM 50.0 °F - 44.6 °F 82% 29.86 in - NW 10.4 mph - N/A   Clear
2:30 AM 48.2 °F - 44.6 °F 87% 29.86 in - WNW 8.1 mph - N/A   Clear
3:00 AM 48.2 °F - 44.6 °F 87% 29.83 in - WNW 6.9 mph - N/A   Clear
3:30 AM 46.4 °F 45.2 °F 42.8 °F 87% 29.83 in - West 3.5 mph - N/A   Clear
4:00 AM 44 °F - 40 °F 80% 29.85 in 6 mi West 4.5 mph - -  
4:00 AM 44.6 °F 40.7 °F 42.8 °F 93% 29.83 in - WNW 6.9 mph - N/A   Clear
4:30 AM 44.6 °F 40.7 °F 42.8 °F 93% 29.83 in - NW 6.9 mph - N/A   Clear
5:00 AM 44.6 °F 42.2 °F 42.8 °F 93% 29.86 in - NW 4.6 mph - N/A   Clear
5:30 AM 44.6 °F 40.7 °F 42.8 °F 93% 29.86 in - NW 6.9 mph - N/A   Clear
6:00 AM 44.6 °F 40.7 °F 42.8 °F 93% 29.86 in 6.2 mi NW 6.9 mph - N/A   Scattered Clouds
6:30 AM 44.6 °F 39.7 °F 42.8 °F 93% 29.89 in 3.1 mi NW 9.2 mph - N/A   Overcast
7:00 AM 44 °F - 42 °F 89% 29.89 in 6 mi WNW 4.5 mph - -  
7:00 AM 44.6 °F 41.4 °F 42.8 °F 93% 29.89 in - NW 5.8 mph - N/A   Mostly Cloudy
7:30 AM 44.6 °F 41.4 °F 44.6 °F 100% 29.89 in - NW 5.8 mph - N/A   Mostly Cloudy
8:00 AM 44.6 °F 40.2 °F 44.6 °F 100% 29.89 in 3.1 mi NW 8.1 mph - N/A   Mist
8:30 AM 48.2 °F - 46.4 °F 93% 29.92 in - NW 10.4 mph - N/A   Clear
9:00 AM 50.0 °F - 46.4 °F 87% 29.92 in - NW 11.5 mph - N/A   Clear
9:30 AM 50.0 °F - 46.4 °F 87% 29.92 in - NW 12.7 mph - N/A   Clear
10:00 AM 49 °F - 45 °F 79% 29.93 in 6 mi West 13.4 mph - -  
10:00 AM 50.0 °F - 46.4 °F 87% 29.92 in 6.2 mi NNW 12.7 mph - N/A   Mostly Cloudy
10:30 AM 50.0 °F - 44.6 °F 82% 29.92 in 6.2 mi NW 11.5 mph - N/A   Mostly Cloudy
11:00 AM 48.2 °F - 46.4 °F 93% 29.92 in 6.2 mi NW 10.4 mph - N/A   Mostly Cloudy
11:30 AM 50.0 °F - 44.6 °F 82% 29.92 in 6.2 mi NW 10.4 mph - N/A   Mostly Cloudy
12:00 PM 50.0 °F - 44.6 °F 82% 29.92 in 6.2 mi WNW 8.1 mph - N/A   Mostly Cloudy
12:30 PM 51.8 °F - 46.4 °F 82% 29.92 in - NW 5.8 mph - N/A   Clear
1:00 PM 53 °F - 46 °F 71% 29.93 in 6 mi WSW 4.5 mph - -  
1:00 PM 57.2 °F - 46.4 °F 67% 29.92 in - NNW 8.1 mph - N/A   Clear
1:30 PM 57.2 °F - 46.4 °F 67% 29.89 in - North 8.1 mph - N/A   Clear
2:00 PM 60.8 °F - 48.2 °F 63% 29.89 in - North 5.8 mph - N/A   Clear
2:30 PM 60.8 °F - 46.4 °F 59% 29.89 in - North 5.8 mph - N/A   Clear
3:00 PM 57.2 °F - 48.2 °F 72% 29.89 in - NE 8.1 mph - N/A   Clear
3:30 PM 55.4 °F - 48.2 °F 77% 29.89 in - ENE 5.8 mph - N/A   Clear
4:00 PM 51 °F - 45 °F 72% 29.88 in 6 mi NNE 4.5 mph - -  
4:00 PM 55.4 °F - 48.2 °F 77% 29.89 in - NE 4.6 mph - N/A   Clear
4:30 PM 57.2 °F - 48.2 °F 72% 29.86 in - ENE 5.8 mph - N/A   Clear
5:00 PM 55.4 °F - 50.0 °F 82% 29.86 in - East 5.8 mph - N/A   Clear
5:30 PM 53.6 °F - 48.2 °F 82% 29.86 in - SSE 11.5 mph - N/A   Clear
6:00 PM 51.8 °F - 46.4 °F 82% 29.83 in - SSE 11.5 mph - N/A   Clear
6:30 PM 46.4 °F 41.5 °F 44.6 °F 93% 29.86 in - SSE 10.4 mph - N/A Fog Overcast
7:00 PM 47 °F - 44 °F 86% 29.85 in 2 mi ESE 4.5 mph - -   Mist
7:00 PM 46.4 °F 41.1 °F 44.6 °F 93% 29.86 in 0.5 mi SSE 11.5 mph - N/A Fog Fog
7:30 PM 46.4 °F 40.4 °F 44.6 °F 93% 29.86 in 0.2 mi SSE 13.8 mph - N/A Fog Fog
8:00 PM 44.6 °F 37.8 °F 44.6 °F 100% 29.86 in 0.1 mi SSE 15.0 mph - N/A Fog Fog
8:30 PM 46.4 °F 40.1 °F 44.6 °F 93% 29.86 in 0.1 mi SSE 15.0 mph - N/A Fog Fog
9:00 PM 46.4 °F 39.8 °F 44.6 °F 93% 29.83 in 0.2 mi SSE 16.1 mph - N/A Fog Fog
9:30 PM 46.4 °F 39.5 °F 44.6 °F 93% 29.83 in 0.3 mi SSE 17.3 mph - N/A Fog Fog
10:00 PM 45 °F - 44 °F 95% 29.83 in 1 mi SE 15.7 mph - -   Mist
10:00 PM 46.4 °F 39.5 °F 46.4 °F 100% 29.83 in 0.3 mi SSE 17.3 mph - N/A Fog Fog
10:30 PM 46.4 °F 39.8 °F 46.4 °F 100% 29.80 in - SSE 16.1 mph - N/A Fog Fog
11:00 PM 46.4 °F 39.5 °F 46.4 °F 100% 29.80 in 0.4 mi South 17.3 mph - N/A Fog Fog
11:30 PM 46.4 °F 40.1 °F 46.4 °F 100% 29.77 in 3.1 mi SSE 15.0 mph - N/A   Mostly Cloudy